Time,TemperatureF,DewpointF,PressureIn,WindDirection,WindDirectionDegrees,WindSpeedMPH,WindSpeedGustMPH,Humidity,HourlyPrecipIn,Conditions,Clouds,dailyrainin,SoftwareType,DateUTC
2013-02-27 00:12:00,37.0,32.0,29.67,North,0,0.0,-999.0,80,-99.99,,,-99.99,,2013-02-27 05:12:00,
2013-02-27 00:22:00,37.0,32.0,29.67,North,0,0.0,-999.0,80,-99.99,,,-99.99,,2013-02-27 05:22:00,
2013-02-27 00:32:00,37.0,32.0,29.67,North,0,0.0,-999.0,80,-99.99,,,-99.99,,2013-02-27 05:32:00,
2013-02-27 00:42:00,37.0,32.0,29.67,North,0,0.0,-999.0,80,-99.99,,,-99.99,,2013-02-27 05:42:00,
2013-02-27 00:52:00,37.0,32.0,29.67,North,0,0.0,-999.0,80,-99.99,,,-99.99,,2013-02-27 05:52:00,
2013-02-27 01:22:00,37.0,30.0,29.68,NW,310,10.0,17.0,74,-99.99,,,-99.99,,2013-02-27 06:22:00,
2013-02-27 01:33:00,37.0,30.0,29.68,NW,310,10.0,17.0,74,-99.99,,,-99.99,,2013-02-27 06:33:00,
2013-02-27 01:42:00,37.0,30.0,29.68,NW,310,10.0,17.0,74,-99.99,,,-99.99,,2013-02-27 06:42:00,
2013-02-27 01:52:00,37.0,30.0,29.68,NW,310,10.0,17.0,74,-99.99,,,-99.99,,2013-02-27 06:52:00,
2013-02-27 02:22:00,37.0,30.0,29.68,North,-99,6.0,-999.0,74,-99.99,,,-99.99,,2013-02-27 07:22:00,
2013-02-27 02:32:00,37.0,30.0,29.68,North,-99,6.0,-999.0,74,-99.99,,,-99.99,,2013-02-27 07:32:00,
2013-02-27 02:42:00,37.0,30.0,29.68,North,-99,6.0,-999.0,74,-99.99,,,-99.99,,2013-02-27 07:42:00,
2013-02-27 02:51:00,37.0,30.0,29.68,North,-99,6.0,-999.0,74,-99.99,,,-99.99,,2013-02-27 07:51:00,
2013-02-27 06:12:00,36.0,30.0,29.73,North,0,0.0,-999.0,80,-99.99,,,-99.99,,2013-02-27 11:12:00,
2013-02-27 06:22:00,36.0,30.0,29.73,North,0,0.0,-999.0,80,-99.99,,,-99.99,,2013-02-27 11:22:00,
2013-02-27 06:32:00,36.0,30.0,29.73,North,0,0.0,-999.0,80,-99.99,,,-99.99,,2013-02-27 11:32:00,
2013-02-27 06:42:00,36.0,30.0,29.73,North,0,0.0,-999.0,80,-99.99,,,-99.99,,2013-02-27 11:42:00,
2013-02-27 06:52:00,36.0,30.0,29.73,North,0,0.0,-999.0,80,-99.99,,,-99.99,,2013-02-27 11:52:00,
2013-02-27 08:12:00,34.0,30.0,29.76,North,0,0.0,-999.0,86,-99.99,,,-99.99,,2013-02-27 13:12:00,
2013-02-27 08:22:00,34.0,30.0,29.76,North,0,0.0,-999.0,86,-99.99,,,-99.99,,2013-02-27 13:22:00,
2013-02-27 08:32:00,34.0,30.0,29.76,North,0,0.0,-999.0,86,-99.99,,,-99.99,,2013-02-27 13:32:00,
2013-02-27 08:42:00,34.0,30.0,29.76,North,0,0.0,-999.0,86,-99.99,,,-99.99,,2013-02-27 13:42:00,
2013-02-27 08:52:00,34.0,30.0,29.76,North,0,0.0,-999.0,86,-99.99,,,-99.99,,2013-02-27 13:52:00,
2013-02-27 09:12:00,36.0,32.0,29.77,North,0,0.0,-999.0,86,-99.99,,,-99.99,,2013-02-27 14:12:00,
2013-02-27 09:22:00,36.0,32.0,29.77,North,0,0.0,-999.0,86,-99.99,,,-99.99,,2013-02-27 14:22:00,
2013-02-27 09:32:00,36.0,32.0,29.77,North,0,0.0,-999.0,86,-99.99,,,-99.99,,2013-02-27 14:32:00,
2013-02-27 09:42:00,36.0,32.0,29.77,North,0,0.0,-999.0,86,-99.99,,,-99.99,,2013-02-27 14:42:00,
2013-02-27 09:52:00,36.0,32.0,29.77,North,0,0.0,-999.0,86,-99.99,,,-99.99,,2013-02-27 14:52:00,
2013-02-27 10:52:00,39.0,34.0,29.79,North,0,0.0,-999.0,80,-99.99,,,-99.99,,2013-02-27 15:52:00,
2013-02-27 12:21:00,45.0,36.0,29.78,North,0,0.0,-999.0,70,-99.99,,,-99.99,,2013-02-27 17:21:00,
2013-02-27 12:32:00,45.0,36.0,29.78,North,0,0.0,-999.0,70,-99.99,,,-99.99,,2013-02-27 17:32:00,
2013-02-27 12:42:00,45.0,36.0,29.78,North,0,0.0,-999.0,70,-99.99,,,-99.99,,2013-02-27 17:42:00,
2013-02-27 12:52:00,45.0,36.0,29.78,North,0,0.0,-999.0,70,-99.99,,,-99.99,,2013-02-27 17:52:00,
2013-02-27 13:11:00,46.0,36.0,29.77,North,0,0.0,-999.0,65,-99.99,,,-99.99,,2013-02-27 18:11:00,
2013-02-27 13:22:00,46.0,36.0,29.77,North,0,0.0,-999.0,65,-99.99,,,-99.99,,2013-02-27 18:22:00,
2013-02-27 13:32:00,46.0,36.0,29.77,North,0,0.0,-999.0,65,-99.99,,,-99.99,,2013-02-27 18:32:00,
2013-02-27 13:42:00,46.0,36.0,29.77,North,0,0.0,-999.0,65,-99.99,,,-99.99,,2013-02-27 18:42:00,
2013-02-27 13:52:00,46.0,36.0,29.77,North,0,0.0,-999.0,65,-99.99,,,-99.99,,2013-02-27 18:52:00,
2013-02-27 14:22:00,50.0,37.0,29.76,North,0,0.0,-999.0,61,-99.99,,,-99.99,,2013-02-27 19:22:00,
2013-02-27 14:32:00,50.0,37.0,29.76,North,0,0.0,-999.0,61,-99.99,,,-99.99,,2013-02-27 19:32:00,
2013-02-27 14:42:00,50.0,37.0,29.76,North,0,0.0,-999.0,61,-99.99,,,-99.99,,2013-02-27 19:42:00,
2013-02-27 14:52:00,50.0,37.0,29.76,North,0,0.0,-999.0,61,-99.99,,,-99.99,,2013-02-27 19:52:00,
2013-02-27 15:22:00,52.0,32.0,29.75,North,0,0.0,-999.0,46,-99.99,,,-99.99,,2013-02-27 20:22:00,
2013-02-27 15:32:00,52.0,32.0,29.75,North,0,0.0,-999.0,46,-99.99,,,-99.99,,2013-02-27 20:32:00,
2013-02-27 15:42:00,52.0,32.0,29.75,North,0,0.0,-999.0,46,-99.99,,,-99.99,,2013-02-27 20:42:00,
2013-02-27 15:52:00,52.0,32.0,29.75,North,0,0.0,-999.0,46,-99.99,,,-99.99,,2013-02-27 20:52:00,
2013-02-27 16:11:00,50.0,27.0,29.75,WSW,240,13.0,27.0,39,-99.99,,,-99.99,,2013-02-27 21:11:00,
2013-02-27 16:22:00,50.0,27.0,29.75,WSW,240,13.0,27.0,39,-99.99,,,-99.99,,2013-02-27 21:22:00,
2013-02-27 16:32:00,50.0,27.0,29.75,WSW,240,13.0,27.0,39,-99.99,,,-99.99,,2013-02-27 21:32:00,
2013-02-27 16:42:00,50.0,27.0,29.75,WSW,240,13.0,27.0,39,-99.99,,,-99.99,,2013-02-27 21:42:00,
2013-02-27 16:52:00,50.0,27.0,29.75,WSW,240,13.0,27.0,39,-99.99,,,-99.99,,2013-02-27 21:52:00,
2013-02-27 17:32:00,48.0,28.0,29.75,WSW,240,17.0,28.0,46,-99.99,,,-99.99,,2013-02-27 22:32:00,
2013-02-27 17:42:00,48.0,28.0,29.75,WSW,240,17.0,28.0,46,-99.99,,,-99.99,,2013-02-27 22:42:00,
2013-02-27 17:52:00,48.0,28.0,29.75,WSW,240,17.0,28.0,46,-99.99,,,-99.99,,2013-02-27 22:52:00,
2013-02-27 18:12:00,46.0,30.0,29.76,SW,230,13.0,27.0,52,-99.99,,,-99.99,,2013-02-27 23:12:00,
2013-02-27 18:22:00,46.0,30.0,29.76,SW,230,13.0,27.0,52,-99.99,,,-99.99,,2013-02-27 23:22:00,
2013-02-27 18:32:00,46.0,30.0,29.76,SW,230,13.0,27.0,52,-99.99,,,-99.99,,2013-02-27 23:32:00,
2013-02-27 18:42:00,46.0,30.0,29.76,SW,230,13.0,27.0,52,-99.99,,,-99.99,,2013-02-27 23:42:00,
2013-02-27 18:52:00,46.0,30.0,29.76,SW,230,13.0,27.0,52,-99.99,,,-99.99,,2013-02-27 23:52:00,
2013-02-27 19:22:00,45.0,30.0,29.77,NNW,340,8.0,-999.0,56,-99.99,,,-99.99,,2013-02-28 00:22:00,
2013-02-27 19:32:00,45.0,30.0,29.77,NNW,340,8.0,-999.0,56,-99.99,,,-99.99,,2013-02-28 00:32:00,
2013-02-27 19:42:00,45.0,30.0,29.77,NNW,340,8.0,-999.0,56,-99.99,,,-99.99,,2013-02-28 00:42:00,
2013-02-27 19:52:00,45.0,30.0,29.77,NNW,340,8.0,-999.0,56,-99.99,,,-99.99,,2013-02-28 00:52:00,
2013-02-27 20:11:00,45.0,34.0,29.77,NW,310,13.0,21.0,65,-99.99,,,-99.99,,2013-02-28 01:11:00,
2013-02-27 20:22:00,45.0,34.0,29.77,NW,310,13.0,21.0,65,-99.99,,,-99.99,,2013-02-28 01:22:00,
2013-02-27 20:32:00,45.0,34.0,29.77,NW,310,13.0,21.0,65,-99.99,,,-99.99,,2013-02-28 01:32:00,
2013-02-27 20:42:00,45.0,34.0,29.77,NW,310,13.0,21.0,65,-99.99,,,-99.99,,2013-02-28 01:42:00,
2013-02-27 20:52:00,45.0,34.0,29.77,NW,310,13.0,21.0,65,-99.99,,,-99.99,,2013-02-28 01:52:00,
2013-02-27 22:22:00,37.0,36.0,29.79,North,0,0.0,-999.0,93,-99.99,,,-99.99,,2013-02-28 03:22:00,
2013-02-27 22:32:00,37.0,36.0,29.79,North,0,0.0,-999.0,93,-99.99,,,-99.99,,2013-02-28 03:32:00,
2013-02-27 22:42:00,37.0,36.0,29.79,North,0,0.0,-999.0,93,-99.99,,,-99.99,,2013-02-28 03:42:00,
2013-02-27 22:52:00,37.0,36.0,29.79,North,0,0.0,-999.0,93,-99.99,,,-99.99,,2013-02-28 03:52:00,
2013-02-27 23:11:00,37.0,34.0,29.79,North,0,0.0,-999.0,86,-99.99,,,-99.99,,2013-02-28 04:11:00,
2013-02-27 23:22:00,37.0,34.0,29.79,North,0,0.0,-999.0,86,-99.99,,,-99.99,,2013-02-28 04:22:00,
2013-02-27 23:32:00,37.0,34.0,29.79,North,0,0.0,-999.0,86,-99.99,,,-99.99,,2013-02-28 04:32:00,
2013-02-27 23:42:00,37.0,34.0,29.79,North,0,0.0,-999.0,86,-99.99,,,-99.99,,2013-02-28 04:42:00,
2013-02-27 23:52:00,37.0,34.0,29.79,North,0,0.0,-999.0,86,-99.99,,,-99.99,,2013-02-28 04:52:00,